This is the latest recevied weather packets stored in our database for station/object VE3GIF. If no packets are shown the sender has not sent any weather packets the latest 1 day(s).
| Time | Temp. | Humidity | Pressure | Rain* | Wind** | Luminosity | Snow |
|---|---|---|---|---|---|---|---|
| 1778038346 | 7.22° C | 86% | 1008.4 hPa | 0 mm | 0.89 m/s, 133° | - | - |
| 1778038046 | 7.78° C | 86% | 1008.3 hPa | 0 mm | 0.45 m/s, 128° | - | - |
| 1778037745 | 7.78° C | 86% | 1008.3 hPa | 0 mm | 0.45 m/s, 138° | - | - |
| 1778037445 | 7.78° C | 86% | 1008.2 hPa | 0 mm | 0.45 m/s, 138° | - | - |
| 1778037145 | 7.78° C | 86% | 1008.1 hPa | 0 mm | 0.89 m/s, 136° | - | - |
| 1778036845 | 7.78° C | 86% | 1008.1 hPa | 0 mm | 0 m/s | - | - |
| 1778036544 | 7.78° C | 86% | 1008 hPa | 0 mm | 0.45 m/s, 132° | - | - |
| 1778036244 | 7.78° C | 86% | 1008.1 hPa | 0 mm | 0.89 m/s, 136° | - | - |
| 1778035944 | 7.22° C | 86% | 1008.2 hPa | 0 mm | 0.89 m/s, 136° | - | - |
| 1778035643 | 7.22° C | 85% | 1008.3 hPa | 0 mm | 0.45 m/s, 130° | - | - |
| 1778035343 | 7.22° C | 85% | 1008.2 hPa | 0 mm | 0 m/s | - | - |
| 1778035043 | 7.22° C | 85% | 1008.3 hPa | 0 mm | 0.45 m/s, 130° | - | - |
| 1778034743 | 7.22° C | 85% | 1008.4 hPa | 0 mm | 0.45 m/s, 136° | - | - |
| 1778034442 | 7.22° C | 85% | 1008.4 hPa | 0 mm | 0.45 m/s, 111° | - | - |
| 1778034142 | 7.22° C | 85% | 1008.5 hPa | 0 mm | 1.79 m/s, 140° | - | - |
| 1778033842 | 7.22° C | 85% | 1008.6 hPa | 0 mm | 1.34 m/s, 125° | - | - |
| 1778033541 | 7.78° C | 85% | 1008.8 hPa | 0 mm | 0.89 m/s, 149° | - | - |
| 1778033241 | 7.78° C | 85% | 1008.9 hPa | 0 mm | 0.89 m/s, 123° | - | - |
| 1778032941 | 7.22° C | 84% | 1008.7 hPa | 0 mm | 0.45 m/s, 140° | - | - |
| 1778032641 | 7.22° C | 84% | 1008.6 hPa | 0 mm | 0.45 m/s, 149° | - | - |
| 1778032040 | 7.78° C | 84% | 1008.3 hPa | 0 mm | 0.45 m/s, 140° | - | - |
| 1778031740 | 7.78° C | 84% | 1008.3 hPa | 0 mm | 0.45 m/s, 138° | - | - |
| 1778031139 | 7.78° C | 83% | 1008.1 hPa | 0 mm | 0.45 m/s, 149° | - | - |
| 1778030839 | 7.78° C | 82% | 1008.1 hPa | 0 mm | 0 m/s | - | - |
| 1778030539 | 7.78° C | 82% | 1007.9 hPa | 0 mm | 0.89 m/s, 140° | - | - |
* Rain latest hour (hover to see other rain measurements)
** Current wind speed in m/s (hover to see current wind gust speed)